Preview of NWS' New Version of Forecast
This preview is not operational and should not be used for support decisions.

Regional Weather Roundup (RWR)

Issued by National Weather Service (NWS)

                            
000
ASCA42 TJSJ 221410
RWRPR 
PUERTO RICO/U.S. VIRGIN ISLANDS HOURLY WEATHER ROUNDUP
NATIONAL WEATHER SERVICE SAN JUAN PR
1000 AM AST WED MAY 22 2019

PRZ001>002-007>008-010-221500-
PUERTO RICO
  
CITY           SKY/WX    TMP DP  RH WIND       PRES   REMARKS
SAN JUAN LMM   PTSUNNY   84  72  65 E12       30.00R                  
AGUADILLA      SUNNY     82  72  69 E3        30.02R                  
CEIBA          SUNNY     84  73  70 E15       30.02R HX  91           
$$

VIZ001>002-221500-
U.S. VIRGIN ISLANDS
  
CITY           SKY/WX    TMP DP  RH WIND       PRES   REMARKS
CHARLOTTE AMA  MOSUNNY   84  72  65 SE13      30.00R                  
CHRISTIANSTED  MOSUNNY   84  73  70 E13       30.01S HX  91           
$$

HOURLY WEATHER ROUNDUP FOR THE NEWS MEDIA
  
CITY           SKY/WX    TMP DP  RH WIND       PRES   REMARKS
ORLANDO        FAIR      82  65  56 E7        30.09R                  
NEW YORK       FAIR      66  37  34 N16G22    30.24R                  
NEWARK         PTSUNNY   68  36  30 N13G21    30.23S                  
CHICAGO        CLOUDY    59  56  89 SE8       29.84F                  
HARTFORD       FAIR      61  39  44 N8G20     30.15R                  
BOSTON         FAIR      62  34  35 NW12G23   30.17R                  
DALLAS         CLOUDY    75  71  87 SE9       29.75S FOG              
PHILADELPHIA   FAIR      68  36  30 VRB5      30.28R                  
LOS ANGELES    MOSUNNY   59  48  67 N3        29.72R                  
WASHINGTON DC  PTSUNNY   63  42  46 E8        30.29S